9JCFI FLKK-FAOR

Flight info

Callsign 9JCFI
Flight time 1h 37m
Altitude 40000
Route IBSUL DCT RETAR UG655 OKMON/N0481F400 UM215 TAVLA UZ7 OKPIT OKPIT4A
Aircraft A359/H-SDE2E3GHIJ3J4J5LM1ORWXYZ/LB1D1

Departure

Time 2026-05-04 19:27
Airport Kenneth Kaunda International Airport (FLKK)

Arrival

Time 2026-05-04 21:05
Airport O.R. Tambo International Airport (FAOR)
Time Latitude Longitude Altitude Speed Heading
2026-05-04 19:09 -15.32638 28.44500 3813 ft 0 kts
2026-05-04 19:23 -15.32636 28.44500 3813 ft 0 kts 353°
2026-05-04 19:24 -15.32628 28.44494 3814 ft 1 kts 313°
2026-05-04 19:24 -15.32626 28.44482 3816 ft 2 kts 275°
2026-05-04 19:24 -15.32630 28.44441 3816 ft 9 kts 254°
2026-05-04 19:24 -15.32673 28.44352 3815 ft 17 kts 232°
2026-05-04 19:25 -15.32767 28.44289 3804 ft 15 kts 217°
2026-05-04 19:25 -15.32790 28.44161 3800 ft 20 kts 274°
2026-05-04 19:25 -15.32777 28.44007 3799 ft 22 kts 276°
2026-05-04 19:25 -15.32761 28.43825 3789 ft 27 kts 275°
2026-05-04 19:26 -15.32741 28.43622 3789 ft 26 kts 275°
2026-05-04 19:26 -15.32801 28.43472 3793 ft 17 kts 214°
2026-05-04 19:26 -15.32901 28.43457 3793 ft 12 kts 149°
2026-05-04 19:26 -15.32929 28.43527 3793 ft 10 kts 96°
2026-05-04 19:27 -15.32957 28.43845 3793 ft 92 kts 96°
2026-05-04 19:27 -15.33049 28.44830 3786 ft 178 kts 96°
2026-05-04 19:27 -15.33214 28.46151 4717 ft 187 kts 94°
2026-05-04 19:27 -15.33430 28.47378 5943 ft 176 kts 110°
2026-05-04 19:28 -15.34332 28.48251 6543 ft 194 kts 160°
2026-05-04 19:28 -15.35704 28.48137 7044 ft 213 kts 206°
2026-05-04 19:28 -15.36980 28.47272 7603 ft 228 kts 216°
2026-05-04 19:28 -15.38336 28.46318 8138 ft 246 kts 213°
2026-05-04 19:29 -15.39838 28.45353 8754 ft 265 kts 209°
2026-05-04 19:29 -15.41477 28.44375 9451 ft 281 kts 207°
2026-05-04 19:29 -15.43204 28.43379 10134 ft 298 kts 206°
2026-05-04 19:29 -15.45085 28.42311 10908 ft 312 kts 205°
2026-05-04 19:30 -15.46997 28.41231 11880 ft 317 kts 204°
2026-05-04 19:30 -15.48938 28.40138 12948 ft 319 kts 204°
2026-05-04 19:30 -15.50859 28.39061 13991 ft 320 kts 204°
2026-05-04 19:30 -15.52821 28.37960 15027 ft 321 kts 204°
2026-05-04 19:31 -15.54782 28.36859 16032 ft 323 kts 204°
2026-05-04 19:31 -15.56728 28.35743 16991 ft 326 kts 208°
2026-05-04 19:31 -15.58499 28.34280 17923 ft 333 kts 221°
2026-05-04 19:31 -15.59968 28.32383 18629 ft 347 kts 233°
2026-05-04 19:32 -15.61268 28.30210 19308 ft 357 kts 235°
2026-05-04 19:32 -15.62530 28.28009 20129 ft 361 kts 236°
2026-05-04 19:32 -15.63837 28.25784 20981 ft 362 kts 231°
2026-05-04 19:32 -15.65571 28.23937 21816 ft 356 kts 211°
2026-05-04 19:33 -15.67774 28.22858 22632 ft 353 kts 193°
2026-05-04 19:33 -15.70198 28.22602 23378 ft 355 kts 175°
2026-05-04 19:33 -15.72592 28.23194 24070 ft 360 kts 160°
2026-05-04 19:33 -15.74924 28.24210 24701 ft 367 kts 159°
2026-05-04 19:34 -15.77296 28.25262 25013 ft 382 kts 159°
2026-05-04 19:34 -15.79786 28.26365 25310 ft 397 kts 159°
2026-05-04 19:34 -15.82387 28.27512 25603 ft 412 kts 159°
2026-05-04 19:34 -15.85040 28.28680 25885 ft 427 kts 159°
2026-05-04 19:35 -15.87822 28.29902 26182 ft 440 kts 159°
2026-05-04 19:35 -15.90677 28.31155 26657 ft 450 kts 159°
2026-05-04 19:35 -15.93550 28.32414 27256 ft 455 kts 159°
2026-05-04 19:35 -15.96469 28.33691 27860 ft 460 kts 159°
2026-05-04 19:36 -15.99414 28.34977 28433 ft 465 kts 159°
2026-05-04 19:36 -16.02438 28.36297 28986 ft 470 kts 159°
2026-05-04 19:36 -16.05477 28.37626 29512 ft 475 kts 159°
2026-05-04 19:36 -16.08575 28.38939 30024 ft 480 kts 161°
2026-05-04 19:37 -16.11727 28.40097 30615 ft 481 kts 164°
2026-05-04 19:37 -16.14917 28.41074 31344 ft 479 kts 167°
2026-05-04 19:37 -16.18134 28.41874 32047 ft 477 kts 170°
2026-05-04 19:37 -16.21359 28.42492 32667 ft 475 kts 173°
2026-05-04 19:38 -16.24653 28.42941 33237 ft 475 kts 176°
2026-05-04 19:38 -16.27914 28.43302 33780 ft 474 kts 176°
2026-05-04 19:38 -16.31179 28.43646 34297 ft 474 kts 176°
2026-05-04 19:38 -16.34448 28.43991 34812 ft 474 kts 176°
2026-05-04 19:39 -16.37728 28.44341 35330 ft 473 kts 176°
2026-05-04 19:39 -16.40953 28.44688 35831 ft 471 kts 176°
2026-05-04 19:39 -16.44205 28.45040 36319 ft 470 kts 176°
2026-05-04 19:39 -16.47477 28.45396 36777 ft 469 kts 176°
2026-05-04 19:40 -16.50681 28.45746 37185 ft 469 kts 176°
2026-05-04 19:40 -16.53912 28.46098 37570 ft 469 kts 176°
2026-05-04 19:40 -16.57153 28.46452 37940 ft 469 kts 176°
2026-05-04 19:40 -16.60373 28.46805 38298 ft 469 kts 176°
2026-05-04 19:41 -16.63629 28.47116 38647 ft 468 kts 179°
2026-05-04 19:41 -16.66857 28.47318 39013 ft 467 kts 179°
2026-05-04 19:41 -16.70097 28.47499 39335 ft 468 kts 179°
2026-05-04 19:41 -16.73361 28.47677 39637 ft 468 kts 179°
2026-05-04 19:42 -16.76604 28.47853 39934 ft 468 kts 179°
2026-05-04 19:42 -16.79833 28.48031 40061 ft 470 kts 179°
2026-05-04 19:42 -16.83098 28.48211 40070 ft 477 kts 179°
2026-05-04 19:43 -16.89785 28.48585 40072 ft 480 kts 179°
2026-05-04 19:43 -16.96409 28.48960 40072 ft 480 kts 179°
2026-05-04 19:44 -17.03051 28.49339 40073 ft 479 kts 180°
2026-05-04 19:44 -17.09670 28.49716 40073 ft 478 kts 180°
2026-05-04 19:45 -17.16318 28.50091 40072 ft 476 kts 180°
2026-05-04 19:45 -17.22909 28.50459 40072 ft 476 kts 180°
2026-05-04 19:46 -17.29500 28.50830 40072 ft 476 kts 180°
2026-05-04 19:46 -17.36087 28.51201 40072 ft 476 kts 180°
2026-05-04 19:47 -17.42675 28.51574 40072 ft 476 kts 180°
2026-05-04 19:47 -17.49258 28.51946 40072 ft 476 kts 180°
2026-05-04 19:48 -17.55818 28.52318 40072 ft 476 kts 180°
2026-05-04 19:48 -17.62434 28.52693 40072 ft 476 kts 180°
2026-05-04 19:49 -17.69027 28.53067 40072 ft 476 kts 180°
2026-05-04 19:49 -17.75598 28.53440 40072 ft 476 kts 180°
2026-05-04 19:50 -17.82215 28.53817 40072 ft 476 kts 180°
2026-05-04 19:50 -17.88763 28.54190 40072 ft 476 kts 180°
2026-05-04 19:51 -17.95372 28.54567 40072 ft 476 kts 180°
2026-05-04 19:51 -18.01970 28.54882 40071 ft 475 kts 183°
2026-05-04 19:52 -18.08512 28.54794 40072 ft 474 kts 185°
2026-05-04 19:52 -18.15085 28.54645 40072 ft 474 kts 185°
2026-05-04 19:53 -18.21673 28.54501 40072 ft 474 kts 185°
2026-05-04 19:53 -18.28222 28.54363 40072 ft 474 kts 185°
2026-05-04 19:54 -18.34776 28.54331 40070 ft 475 kts 182°
2026-05-04 19:54 -18.41376 28.54602 40072 ft 475 kts 181°
2026-05-04 19:55 -18.47966 28.54899 40072 ft 475 kts 181°
2026-05-04 19:55 -18.54558 28.55188 40072 ft 475 kts 181°
2026-05-04 19:56 -18.61131 28.55474 40072 ft 475 kts 181°
2026-05-04 19:56 -18.67704 28.55806 40072 ft 476 kts 180°
2026-05-04 19:57 -18.74295 28.56234 40072 ft 476 kts 180°
2026-05-04 19:57 -18.80861 28.56655 40072 ft 476 kts 180°
2026-05-04 19:58 -18.87477 28.57069 40072 ft 476 kts 180°
2026-05-04 19:58 -18.94030 28.57477 40071 ft 477 kts 180°
2026-05-04 19:59 -19.00624 28.57887 40069 ft 479 kts 180°
2026-05-04 19:59 -19.07290 28.58303 40068 ft 480 kts 180°
2026-05-04 20:00 -19.13919 28.58716 40067 ft 480 kts 180°
2026-05-04 20:00 -19.20569 28.59132 40066 ft 480 kts 180°
2026-05-04 20:01 -19.27215 28.59547 40079 ft 481 kts 180°
2026-05-04 20:01 -19.33850 28.59963 40125 ft 481 kts 180°
2026-05-04 20:02 -19.40535 28.60382 40181 ft 480 kts 180°
2026-05-04 20:02 -19.47154 28.60797 40214 ft 480 kts 180°
2026-05-04 20:03 -19.53783 28.61214 40227 ft 480 kts 180°
2026-05-04 20:03 -19.60437 28.61632 40233 ft 480 kts 180°
2026-05-04 20:04 -19.67073 28.62049 40235 ft 480 kts 180°
2026-05-04 20:04 -19.73722 28.62468 40236 ft 480 kts 180°
2026-05-04 20:05 -19.80377 28.62888 40234 ft 481 kts 180°
2026-05-04 20:05 -19.87011 28.63306 40235 ft 482 kts 180°
2026-05-04 20:06 -19.93681 28.63728 40236 ft 482 kts 180°
2026-05-04 20:06 -20.00356 28.64063 40234 ft 481 kts 183°
2026-05-04 20:07 -20.06959 28.63766 40234 ft 477 kts 189°
2026-05-04 20:07 -20.13532 28.62944 40235 ft 477 kts 191°
2026-05-04 20:08 -20.20143 28.62069 40236 ft 477 kts 191°
2026-05-04 20:08 -20.26709 28.61203 40236 ft 477 kts 191°
2026-05-04 20:09 -20.33256 28.60343 40236 ft 476 kts 191°
2026-05-04 20:09 -20.39830 28.59481 40236 ft 476 kts 191°
2026-05-04 20:10 -20.46355 28.58624 40236 ft 476 kts 191°
2026-05-04 20:10 -20.52915 28.57763 40236 ft 476 kts 191°
2026-05-04 20:11 -20.59462 28.56903 40236 ft 476 kts 191°
2026-05-04 20:11 -20.66035 28.56038 40236 ft 476 kts 191°
2026-05-04 20:12 -20.72582 28.55176 40236 ft 476 kts 191°
2026-05-04 20:12 -20.79099 28.54318 40236 ft 476 kts 191°
2026-05-04 20:13 -20.85649 28.53454 40236 ft 476 kts 191°
2026-05-04 20:13 -20.92219 28.52586 40236 ft 476 kts 191°
2026-05-04 20:14 -20.98774 28.51721 40236 ft 476 kts 191°
2026-05-04 20:14 -21.05308 28.50860 40236 ft 474 kts 191°
2026-05-04 20:15 -21.11782 28.50005 40236 ft 472 kts 191°
2026-05-04 20:15 -21.18266 28.49150 40236 ft 471 kts 191°
2026-05-04 20:16 -21.24736 28.48293 40236 ft 471 kts 191°
2026-05-04 20:16 -21.31227 28.47431 40235 ft 471 kts 191°
2026-05-04 20:17 -21.37686 28.46573 40236 ft 471 kts 191°
2026-05-04 20:17 -21.44186 28.45708 40235 ft 471 kts 191°
2026-05-04 20:18 -21.50693 28.44842 40236 ft 471 kts 191°
2026-05-04 20:18 -21.57174 28.43977 40236 ft 471 kts 191°
2026-05-04 20:19 -21.63642 28.43114 40236 ft 471 kts 191°
2026-05-04 20:19 -21.70142 28.42226 40235 ft 470 kts 192°
2026-05-04 20:20 -21.76623 28.41319 40236 ft 470 kts 192°
2026-05-04 20:20 -21.83088 28.40414 40236 ft 470 kts 192°
2026-05-04 20:21 -21.89566 28.39507 40235 ft 470 kts 192°
2026-05-04 20:21 -21.99282 28.38147 40236 ft 470 kts 192°
2026-05-04 20:22 -22.05716 28.37245 40236 ft 470 kts 192°
2026-05-04 20:22 -22.12194 28.36336 40236 ft 470 kts 192°
2026-05-04 20:23 -22.18673 28.35432 40235 ft 470 kts 192°
2026-05-04 20:23 -22.25127 28.34527 40235 ft 470 kts 192°
2026-05-04 20:24 -22.31548 28.33623 40236 ft 470 kts 192°
2026-05-04 20:24 -22.38028 28.32709 40235 ft 469 kts 192°
2026-05-04 20:25 -22.44488 28.31795 40235 ft 469 kts 192°
2026-05-04 20:25 -22.50947 28.30882 40236 ft 469 kts 192°
2026-05-04 20:26 -22.57469 28.30320 40236 ft 473 kts 186°
2026-05-04 20:26 -22.64074 28.30536 40236 ft 477 kts 179°
2026-05-04 20:27 -22.70653 28.31557 40236 ft 481 kts 173°
2026-05-04 20:27 -22.77155 28.33221 40236 ft 483 kts 171°
2026-05-04 20:28 -22.83666 28.34988 40235 ft 483 kts 170°
2026-05-04 20:28 -22.90169 28.36746 40234 ft 483 kts 171°
2026-05-04 20:29 -22.96715 28.38507 40234 ft 488 kts 171°
2026-05-04 20:29 -23.03355 28.40291 40234 ft 494 kts 171°
2026-05-04 20:30 -23.10047 28.42093 40235 ft 497 kts 170°
2026-05-04 20:30 -23.16744 28.43894 40236 ft 496 kts 170°
2026-05-04 20:31 -23.23403 28.45688 40236 ft 496 kts 170°
2026-05-04 20:31 -23.30109 28.47497 40236 ft 496 kts 170°
2026-05-04 20:32 -23.36801 28.49306 40236 ft 496 kts 170°
2026-05-04 20:32 -23.43523 28.51124 40236 ft 496 kts 170°
2026-05-04 20:33 -23.50219 28.52938 40236 ft 496 kts 170°
2026-05-04 20:33 -23.56879 28.54743 40236 ft 496 kts 170°
2026-05-04 20:34 -23.63552 28.56554 40236 ft 496 kts 170°
2026-05-04 20:34 -23.70191 28.58357 40236 ft 496 kts 171°
2026-05-04 20:35 -23.76872 28.60172 40236 ft 496 kts 170°
2026-05-04 20:35 -23.83536 28.61936 40235 ft 494 kts 173°
2026-05-04 20:36 -23.90270 28.63367 40235 ft 494 kts 174°
2026-05-04 20:36 -23.96978 28.64738 40236 ft 493 kts 174°
2026-05-04 20:37 -24.03719 28.66142 40235 ft 494 kts 173°
2026-05-04 20:37 -24.10435 28.67553 40235 ft 494 kts 173°
2026-05-04 20:38 -24.17103 28.68938 40236 ft 494 kts 173°
2026-05-04 20:38 -24.23854 28.70336 40235 ft 494 kts 173°
2026-05-04 20:39 -24.30548 28.71725 39905 ft 482 kts 173°
2026-05-04 20:39 -24.33801 28.72401 39656 ft 476 kts 174°
2026-05-04 20:39 -24.37035 28.73071 39406 ft 474 kts 174°
2026-05-04 20:40 -24.40273 28.73741 39155 ft 472 kts 174°
2026-05-04 20:40 -24.43480 28.74405 38905 ft 470 kts 174°
2026-05-04 20:40 -24.46655 28.75063 38658 ft 470 kts 174°
2026-05-04 20:40 -24.49869 28.75730 38408 ft 470 kts 174°
2026-05-04 20:41 -24.53059 28.76393 38160 ft 470 kts 174°
2026-05-04 20:41 -24.56283 28.77064 37909 ft 470 kts 174°
2026-05-04 20:41 -24.59450 28.77723 37657 ft 470 kts 174°
2026-05-04 20:41 -24.62669 28.78394 37355 ft 470 kts 174°
2026-05-04 20:42 -24.65854 28.79057 36993 ft 471 kts 174°
2026-05-04 20:42 -24.69074 28.79728 36442 ft 472 kts 174°
2026-05-04 20:42 -24.72306 28.80402 35796 ft 473 kts 174°
2026-05-04 20:42 -24.75535 28.81075 35123 ft 474 kts 174°
2026-05-04 20:43 -24.78721 28.81739 34447 ft 475 kts 174°
2026-05-04 20:43 -24.81954 28.82413 33751 ft 475 kts 173°
2026-05-04 20:43 -24.85230 28.83096 32999 ft 477 kts 173°
2026-05-04 20:43 -24.88482 28.83741 32190 ft 479 kts 175°
2026-05-04 20:44 -24.91760 28.84156 31339 ft 480 kts 180°
2026-05-04 20:44 -24.95103 28.84289 30451 ft 482 kts 184°
2026-05-04 20:44 -24.98405 28.84123 29621 ft 481 kts 189°
2026-05-04 20:44 -25.01734 28.83654 29053 ft 475 kts 193°
2026-05-04 20:45 -25.04976 28.83007 28393 ft 474 kts 194°
2026-05-04 20:45 -25.08175 28.82318 27715 ft 473 kts 194°
2026-05-04 20:45 -25.11420 28.81611 27027 ft 473 kts 194°
2026-05-04 20:45 -25.14636 28.80919 26350 ft 472 kts 194°
2026-05-04 20:46 -25.17849 28.80234 25673 ft 472 kts 193°
2026-05-04 20:46 -25.21090 28.79547 24986 ft 471 kts 193°
2026-05-04 20:46 -25.24302 28.78868 24436 ft 465 kts 193°
2026-05-04 20:46 -25.27417 28.78210 24044 ft 457 kts 193°
2026-05-04 20:47 -25.30499 28.77557 23669 ft 448 kts 193°
2026-05-04 20:47 -25.33535 28.76910 23317 ft 439 kts 193°
2026-05-04 20:47 -25.36505 28.76276 22990 ft 430 kts 192°
2026-05-04 20:47 -25.39405 28.75658 22686 ft 421 kts 192°
2026-05-04 20:48 -25.42272 28.75048 22401 ft 412 kts 192°
2026-05-04 20:48 -25.45040 28.74372 22124 ft 402 kts 199°
2026-05-04 20:48 -25.47572 28.73225 21818 ft 392 kts 210°
2026-05-04 20:48 -25.49871 28.71656 21459 ft 385 kts 216°
2026-05-04 20:49 -25.52046 28.70011 21107 ft 379 kts 217°
2026-05-04 20:49 -25.54218 28.68353 20750 ft 374 kts 216°
2026-05-04 20:49 -25.56354 28.66746 20405 ft 370 kts 216°
2026-05-04 20:49 -25.58460 28.65178 20066 ft 365 kts 216°
2026-05-04 20:50 -25.60565 28.63619 19732 ft 361 kts 215°
2026-05-04 20:50 -25.62637 28.62089 19407 ft 356 kts 215°
2026-05-04 20:50 -25.64668 28.60588 19091 ft 352 kts 215°
2026-05-04 20:50 -25.66684 28.59095 18770 ft 348 kts 215°
2026-05-04 20:51 -25.68687 28.57610 18415 ft 345 kts 215°
2026-05-04 20:51 -25.70695 28.56122 18041 ft 343 kts 215°
2026-05-04 20:51 -25.72676 28.54654 17670 ft 341 kts 214°
2026-05-04 20:51 -25.74635 28.53221 17299 ft 339 kts 211°
2026-05-04 20:52 -25.76745 28.52074 16932 ft 337 kts 200°
2026-05-04 20:52 -25.78969 28.51345 16572 ft 335 kts 193°
2026-05-04 20:52 -25.81224 28.50780 16229 ft 333 kts 192°
2026-05-04 20:52 -25.83497 28.50231 15746 ft 335 kts 192°
2026-05-04 20:53 -25.85787 28.49671 15377 ft 333 kts 192°
2026-05-04 20:53 -25.88016 28.49118 15066 ft 329 kts 192°
2026-05-04 20:53 -25.90229 28.48564 14766 ft 325 kts 192°
2026-05-04 20:53 -25.92415 28.48013 14470 ft 322 kts 192°
2026-05-04 20:54 -25.94584 28.47464 14175 ft 318 kts 192°
2026-05-04 20:54 -25.96720 28.46921 13884 ft 315 kts 192°
2026-05-04 20:54 -25.98862 28.46377 13592 ft 312 kts 192°
2026-05-04 20:54 -26.00970 28.45841 13302 ft 310 kts 192°
2026-05-04 20:55 -26.03050 28.45311 13019 ft 307 kts 192°
2026-05-04 20:55 -26.05138 28.44779 12734 ft 304 kts 192°
2026-05-04 20:55 -26.07173 28.44260 12454 ft 302 kts 192°
2026-05-04 20:55 -26.09231 28.43735 12170 ft 300 kts 192°
2026-05-04 20:56 -26.11262 28.43219 11890 ft 298 kts 192°
2026-05-04 20:56 -26.13281 28.42708 11611 ft 296 kts 192°
2026-05-04 20:56 -26.15257 28.42207 11338 ft 294 kts 192°
2026-05-04 20:56 -26.17256 28.41700 11061 ft 293 kts 192°
2026-05-04 20:57 -26.19234 28.41198 10790 ft 291 kts 192°
2026-05-04 20:57 -26.21181 28.40702 10523 ft 289 kts 192°
2026-05-04 20:57 -26.23040 28.40226 10267 ft 288 kts 193°
2026-05-04 20:57 -26.24995 28.39727 10000 ft 287 kts 193°
2026-05-04 20:58 -26.26911 28.39238 9900 ft 277 kts 193°
2026-05-04 20:58 -26.28763 28.38763 9856 ft 266 kts 193°
2026-05-04 20:58 -26.30512 28.38287 9796 ft 256 kts 199°
2026-05-04 20:58 -26.31930 28.37205 9725 ft 243 kts 236°
2026-05-04 20:59 -26.32527 28.35498 9562 ft 238 kts 267°
2026-05-04 20:59 -26.32268 28.33712 9333 ft 234 kts 294°
2026-05-04 20:59 -26.31602 28.32062 9129 ft 232 kts 296°
2026-05-04 20:59 -26.30931 28.30436 8923 ft 232 kts 296°
2026-05-04 21:00 -26.30270 28.28787 8715 ft 231 kts 295°
2026-05-04 21:00 -26.29636 28.27166 8520 ft 229 kts 295°
2026-05-04 21:00 -26.29017 28.25571 8524 ft 217 kts 295°
2026-05-04 21:00 -26.28444 28.24086 8488 ft 201 kts 295°
2026-05-04 21:01 -26.27908 28.22698 8428 ft 186 kts 295°
2026-05-04 21:01 -26.27423 28.21438 8369 ft 172 kts 295°
2026-05-04 21:01 -26.26855 28.20312 8250 ft 164 kts 320°
2026-05-04 21:01 -26.25802 28.19952 8246 ft 159 kts
2026-05-04 21:02 -26.24756 28.20269 8213 ft 158 kts 18°
2026-05-04 21:02 -26.23698 28.20707 7761 ft 167 kts 19°
2026-05-04 21:02 -26.22599 28.21112 7401 ft 166 kts 17°
2026-05-04 21:02 -26.21518 28.21442 7179 ft 156 kts 12°
2026-05-04 21:03 -26.20490 28.21732 6916 ft 152 kts 14°
2026-05-04 21:03 -26.19464 28.22022 6613 ft 151 kts 12°
2026-05-04 21:03 -26.18453 28.22295 6357 ft 149 kts 12°
2026-05-04 21:03 -26.17443 28.22576 6154 ft 150 kts 14°
2026-05-04 21:04 -26.16441 28.22896 5952 ft 150 kts 13°
2026-05-04 21:04 -26.15453 28.23190 5737 ft 145 kts 14°
2026-05-04 21:04 -26.14506 28.23487 5604 ft 137 kts 14°
2026-05-04 21:04 -26.13636 28.23753 5557 ft 108 kts 15°
2026-05-04 21:05 -26.13273 28.23855 5546 ft 21 kts 356°
2026-05-04 21:05 -26.13187 28.23812 5547 ft 6 kts 318°
2026-05-04 21:05 -26.13172 28.23796 5548 ft 0 kts 315°
2026-05-04 21:07 -26.13170 28.23793 5548 ft 1 kts 315°
2026-05-04 21:07 -26.13154 28.23775 5548 ft 4 kts 315°
2026-05-04 21:07 -26.13115 28.23735 5550 ft 10 kts 327°
2026-05-04 21:07 -26.13022 28.23731 5548 ft 15 kts 14°
2026-05-04 21:08 -26.12955 28.23754 5545 ft 4 kts 17°
2026-05-04 21:08 -26.12918 28.23766 5543 ft 2 kts 16°
2026-05-04 21:08 -26.12915 28.23767 5543 ft 0 kts 16°
2026-05-04 21:09 -26.12854 28.23759 5542 ft 15 kts 320°
2026-05-04 21:10 -26.12836 28.23728 5543 ft 0 kts 288°
2026-05-04 21:10 -26.12836 28.23725 5543 ft 1 kts 285°
2026-05-04 21:10 -26.12832 28.23708 5544 ft 3 kts 283°
2026-05-04 21:11 -26.12827 28.23675 5545 ft 5 kts 277°
2026-05-04 21:11 -26.12822 28.23630 5547 ft 6 kts 276°
2026-05-04 21:11 -26.12818 28.23579 5550 ft 6 kts 276°
2026-05-04 21:11 -26.12814 28.23547 5552 ft 0 kts 276°
2026-05-04 21:12 -26.12814 28.23542 5552 ft 0 kts 276°
2026-05-04 21:12 -26.12814 28.23538 5552 ft 0 kts 276°
2026-05-04 21:12 -26.12814 28.23528 5553 ft 3 kts 259°
2026-05-04 21:12 -26.12844 28.23493 5556 ft 10 kts 203°
2026-05-04 21:13 -26.12895 28.23474 5557 ft 2 kts 181°
2026-05-04 21:13 -26.12896 28.23474 5557 ft 0 kts 180°